Regional Weather Roundup
Issued by NWS Goodland, KS

Home | Current Version | Previous Version | Text Only | Print | Product List | Glossary Off
Versions: 1 2 3 4 5 6 7 8 9 10 11 12 13 14 15 16 17 18 19 20 21 22 23 24 25 26 27 28 29 30 31 32 33 34 35 36 37 38 39 40 41 42 43 44 45 46 47 48 49 50

000
ASUS43 KGLD 291359
RWRGLD

GOODLAND FORECAST AREA HOURLY WEATHER ROUNDUP
NATIONAL WEATHER SERVICE GOODLAND KS
800 AM MDT FRI APR 29 2016

...OFFICIAL OBSERVATIONS...

CITY           SKY/WX    TMP DP  RH WIND       PRES   REMARKS
GOODLAND KS    LGT RAIN  40  38  93 E13       29.97F
HILL CITY KS   CLOUDY    43  40  89 E14       30.03R
IMPERIAL NEB   CLOUDY    41  38  89 NE13      30.01F
MCCOOK NEB     CLOUDY    43  40  89 NE14      30.02F
AKRON CO       CLOUDY    36  34  92 E13       29.97F
BURLINGTON CO  LGT RAIN  39  36  89 NE15      29.97S
LIMON CO       LGT SNOW  32  31  96 SW5       29.98R VSB 1
$$

...UNOFFICIAL OBSERVATIONS...

CITY           SKY/WX    TMP DP  RH WIND       PRES   REMARKS
COLBY KS       LGT RAIN  41  41 100 NE14      30.00F
GOVE KS          N/A     43  32  65 MISG        N/A
LENORA KS        N/A     42  32  68 MISG        N/A
NORTON KS      CLOUDY    43  36  75 NE14      30.03R
SHARON SPRINGS   N/A     41  40  96 NE18        N/A
KIT CARSON CO    N/A     37  34  90 MISG        N/A
YUMA CO          N/A     38  36  94 E6          N/A
$$



USA.gov is the U.S. government's official web portal to all federal, state and local government web resources and services.